International Skating Union - Official Site

ISU World Cup Salt Lake City
November 20-22, 2015

Draw | Lap Times | Index | World Cup

Referee: Rick  HUNT  (CAN)
Starter: Brad  BATES  (CAN)
StartTime: EndTime: Air Temp: Ice Temp: Humidity:
09:01 09:55 20.7℃ -12℃ 29%
Result 5000m Ladies Division B
Rankings as of Nov 22 2015 4:19PM
Rank: No.: Name: Nation: Time: Behind: Points:
1 266 Carien  Kleibeuker NED NED 6:45.04200m - 21.05 - (21.0)
600m - 52.07 - (31.0)
1000m - 1:23.28 - (31.2)
1400m - 1:54.95 - (31.6)
1800m - 2:26.91 - (31.9)
2200m - 2:58.72 - (31.8)
2600m - 3:30.69 - (31.9)
3000m - 4:02.73 - (32.0)
3400m - 4:34.83 - (32.0)
3800m - 5:07.16 - (32.3)
4200m - 5:39.66 - (32.5)
4600m - 6:12.30 - (32.6)
5000m - 6:45.04 - (32.7)
32
2 260 Antoinette  de Jong NED NED 6:56.45200m - 20.71 - (20.7)
600m - 52.05 - (31.3)
1000m - 1:24.34 - (32.2)
1400m - 1:56.72 - (32.3)
1800m - 2:29.46 - (32.7)
2200m - 3:02.16 - (32.6)
2600m - 3:35.06 - (32.9)
3000m - 4:07.92 - (32.8)
3400m - 4:41.20 - (33.2)
3800m - 5:14.65 - (33.4)
4200m - 5:48.49 - (33.8)
4600m - 6:22.57 - (34.0)
5000m - 6:56.45 - (33.8)
11.41 27
3 274 Lisa  van der Geest NED NED 6:57.89200m - 21.48 - (21.4)
600m - 53.75 - (32.2)
1000m - 1:26.68 - (32.9)
1400m - 2:00.14 - (33.4)
1800m - 2:33.08 - (32.9)
2200m - 3:06.01 - (32.9)
2600m - 3:38.70 - (32.6)
3000m - 4:11.38 - (32.6)
3400m - 4:44.10 - (32.7)
3800m - 5:16.93 - (32.8)
4200m - 5:50.01 - (33.0)
4600m - 6:23.80 - (33.7)
5000m - 6:57.89 - (34.0)
12.85 23
4 229 Stephanie  Beckert GER GER 6:58.75200m - 21.82 - (21.8)
600m - 54.48 - (32.6)
1000m - 1:27.29 - (32.8)
1400m - 1:59.96 - (32.6)
1800m - 2:32.87 - (32.9)
2200m - 3:05.76 - (32.8)
2600m - 3:38.80 - (33.0)
3000m - 4:11.80 - (33.0)
3400m - 4:45.00 - (33.1)
3800m - 5:18.42 - (33.4)
4200m - 5:52.35 - (33.9)
4600m - 6:25.89 - (33.5)
5000m - 6:58.75 - (32.8)
13.71 19
5 287 Anna  Yurakova RUS RUS 7:01.91200m - 21.38 - (21.3)
600m - 54.00 - (32.6)
1000m - 1:26.11 - (32.1)
1400m - 1:58.70 - (32.5)
1800m - 2:31.07 - (32.3)
2200m - 3:03.31 - (32.2)
2600m - 3:35.78 - (32.4)
3000m - 4:08.46 - (32.6)
3400m - 4:41.85 - (33.3)
3800m - 5:15.87 - (34.0)
4200m - 5:50.64 - (34.7)
4600m - 6:26.42 - (35.7)
5000m - 7:01.91 - (35.4)
16.87 15
6 202 Jelena  Peeters BEL BEL 7:03.69200m - 20.87 - (20.8)
600m - 54.31 - (33.4)
1000m - 1:27.92 - (33.6)
1400m - 2:01.53 - (33.6)
1800m - 2:35.43 - (33.9)
2200m - 3:09.06 - (33.6)
2600m - 3:42.72 - (33.6)
3000m - 4:16.42 - (33.7)
3400m - 4:49.95 - (33.5)
3800m - 5:23.28 - (33.3)
4200m - 5:56.75 - (33.4)
4600m - 6:30.07 - (33.3)
5000m - 7:03.69 - (33.6)
18.65 11
7 212 Josie  Spence CAN CAN 7:04.76200m - 20.94 - (20.9)
600m - 54.06 - (33.1)
1000m - 1:27.27 - (33.2)
1400m - 2:00.47 - (33.2)
1800m - 2:33.87 - (33.4)
2200m - 3:07.56 - (33.6)
2600m - 3:41.11 - (33.5)
3000m - 4:14.62 - (33.5)
3400m - 4:48.53 - (33.9)
3800m - 5:22.41 - (33.8)
4200m - 5:56.32 - (33.9)
4600m - 6:30.54 - (34.2)
5000m - 7:04.76 - (34.2)
19.72 9
8 250 Bo-Reum  Kim KOR KOR 7:05.55200m - 21.33 - (21.3)
600m - 54.53 - (33.2)
1000m - 1:27.77 - (33.2)
1400m - 2:01.56 - (33.7)
1800m - 2:35.43 - (33.8)
2200m - 3:08.99 - (33.5)
2600m - 3:43.03 - (34.0)
3000m - 4:17.05 - (34.0)
3400m - 4:50.86 - (33.8)
3800m - 5:24.64 - (33.7)
4200m - 5:58.40 - (33.7)
4600m - 6:31.72 - (33.3)
5000m - 7:05.55 - (33.8)
20.51 7
9 242 Fuyo  Matsuoka JPN JPN 7:09.07200m - 20.99 - (20.9)
600m - 53.25 - (32.2)
1000m - 1:26.18 - (32.9)
1400m - 1:59.55 - (33.3)
1800m - 2:33.18 - (33.6)
2200m - 3:07.10 - (33.9)
2600m - 3:41.29 - (34.1)
3000m - 4:15.38 - (34.0)
3400m - 4:49.70 - (34.3)
3800m - 5:24.25 - (34.5)
4200m - 5:58.87 - (34.6)
4600m - 6:34.08 - (35.2)
5000m - 7:09.07 - (34.9)
24.03 6
10 236 Francesca  Lollobrigida ITA ITA 7:09.37200m - 20.80 - (20.8)
600m - 53.68 - (32.8)
1000m - 1:26.88 - (33.1)
1400m - 2:00.23 - (33.3)
1800m - 2:33.70 - (33.4)
2200m - 3:07.43 - (33.7)
2600m - 3:41.27 - (33.8)
3000m - 4:15.74 - (34.4)
3400m - 4:50.49 - (34.7)
3800m - 5:25.45 - (34.9)
4200m - 6:00.17 - (34.7)
4600m - 6:35.21 - (35.0)
5000m - 7:09.37 - (34.1)
24.33 5
11 245 Nana  Takagi JPN JPN 7:10.22 (7) 200m - 21.01 - (21.0)
600m - 54.50 - (33.4)
1000m - 1:28.41 - (33.9)
1400m - 2:02.13 - (33.7)
1800m - 2:35.75 - (33.6)
2200m - 3:09.51 - (33.7)
2600m - 3:43.50 - (33.9)
3000m - 4:17.60 - (34.1)
3400m - 4:51.57 - (33.9)
3800m - 5:25.54 - (33.9)
4200m - 5:59.99 - (34.4)
4600m - 6:34.72 - (34.7)
5000m - 7:10.22 - (35.5)
25.18 4
12 283 Luiza  Zlotkowska POL POL 7:10.22 (8) 200m - 20.98 - (20.9)
600m - 54.97 - (33.9)
1000m - 1:28.84 - (33.8)
1400m - 2:02.50 - (33.6)
1800m - 2:36.66 - (34.1)
2200m - 3:10.07 - (33.4)
2600m - 3:43.52 - (33.4)
3000m - 4:17.50 - (33.9)
3400m - 4:51.54 - (34.0)
3800m - 5:25.58 - (34.0)
4200m - 6:00.03 - (34.4)
4600m - 6:34.80 - (34.7)
5000m - 7:10.22 - (35.4)
25.18 3
13 221 Xin  Zhao CHN CHN 7:10.72200m - 20.98 - (20.9)
600m - 54.15 - (33.1)
1000m - 1:27.22 - (33.0)
1400m - 2:00.58 - (33.3)
1800m - 2:33.59 - (33.0)
2200m - 3:07.03 - (33.4)
2600m - 3:40.50 - (33.4)
3000m - 4:14.38 - (33.8)
3400m - 4:48.43 - (34.0)
3800m - 5:23.03 - (34.5)
4200m - 5:58.16 - (35.1)
4600m - 6:34.61 - (36.4)
5000m - 7:10.72 - (36.1)
25.68 2
14 217 Jing  Liu CHN CHN 7:10.88200m - 20.41 - (20.4)
600m - 53.36 - (32.9)
1000m - 1:27.09 - (33.7)
1400m - 2:00.39 - (33.2)
1800m - 2:33.66 - (33.2)
2200m - 3:07.01 - (33.3)
2600m - 3:40.37 - (33.3)
3000m - 4:14.30 - (33.9)
3400m - 4:48.81 - (34.5)
3800m - 5:23.57 - (34.7)
4200m - 5:59.53 - (35.9)
4600m - 6:35.51 - (35.9)
5000m - 7:10.88 - (35.3)
25.84 1
15 215 Jiachen  Hao CHN CHN 7:11.10200m - 21.83 - (21.8)
600m - 54.62 - (32.7)
1000m - 1:27.90 - (33.2)
1400m - 2:00.94 - (33.0)
1800m - 2:34.91 - (33.9)
2200m - 3:09.35 - (34.4)
2600m - 3:43.49 - (34.1)
3000m - 4:17.69 - (34.1)
3400m - 4:52.46 - (34.7)
3800m - 5:27.43 - (34.9)
4200m - 6:01.91 - (34.4)
4600m - 6:36.71 - (34.7)
5000m - 7:11.10 - (34.3)
26.06 0
16 280 Aleksandra  Goss POL POL 7:11.17200m - 21.90 - (21.8)
600m - 55.71 - (33.8)
1000m - 1:28.70 - (32.9)
1400m - 2:02.63 - (33.9)
1800m - 2:36.60 - (33.9)
2200m - 3:10.79 - (34.1)
2600m - 3:44.59 - (33.8)
3000m - 4:19.03 - (34.4)
3400m - 4:53.38 - (34.3)
3800m - 5:27.98 - (34.6)
4200m - 6:02.20 - (34.2)
4600m - 6:36.74 - (34.5)
5000m - 7:11.17 - (34.4)
26.13 0
17 255 Do-Young  Park KOR KOR 7:11.93200m - 20.97 - (20.9)
600m - 53.74 - (32.7)
1000m - 1:27.29 - (33.5)
1400m - 2:01.30 - (34.0)
1800m - 2:35.02 - (33.7)
2200m - 3:09.31 - (34.2)
2600m - 3:43.63 - (34.3)
3000m - 4:18.56 - (34.9)
3400m - 4:53.33 - (34.7)
3800m - 5:28.08 - (34.7)
4200m - 6:02.98 - (34.9)
4600m - 6:37.60 - (34.6)
5000m - 7:11.93 - (34.3)
26.89 0
18 205 Marina  Zuyeva BLR BLR 7:12.24200m - 21.25 - (21.2)
600m - 54.80 - (33.5)
1000m - 1:28.76 - (33.9)
1400m - 2:02.36 - (33.5)
1800m - 2:36.19 - (33.8)
2200m - 3:09.90 - (33.7)
2600m - 3:44.15 - (34.2)
3000m - 4:18.48 - (34.3)
3400m - 4:52.60 - (34.1)
3800m - 5:27.36 - (34.7)
4200m - 6:02.36 - (35.0)
4600m - 6:37.36 - (35.0)
5000m - 7:12.24 - (34.8)
27.20 0
19 226 Nikola  Zdráhalová CZE CZE 7:17.00200m - 21.26 - (21.2)
600m - 55.82 - (34.5)
1000m - 1:30.55 - (34.7)
1400m - 2:05.44 - (34.8)
1800m - 2:40.05 - (34.6)
2200m - 3:14.85 - (34.7)
2600m - 3:49.35 - (34.5)
3000m - 4:24.23 - (34.8)
3400m - 4:59.04 - (34.8)
3800m - 5:34.22 - (35.1)
4200m - 6:09.28 - (35.0)
4600m - 6:43.94 - (34.6)
5000m - 7:17.00 - (33.0)
31.96 0
20 281 Urszula  Wlodarczyk POL POL 7:17.15200m - 21.98 - (21.9)
600m - 56.36 - (34.3)
1000m - 1:30.88 - (34.5)
1400m - 2:05.35 - (34.4)
1800m - 2:40.09 - (34.7)
2200m - 3:14.48 - (34.3)
2600m - 3:49.02 - (34.5)
3000m - 4:23.52 - (34.4)
3400m - 4:58.17 - (34.6)
3800m - 5:32.97 - (34.8)
4200m - 6:07.94 - (34.9)
4600m - 6:42.88 - (34.9)
5000m - 7:17.15 - (34.2)
32.11 0
21 295 Maria  Lamb USA USA 7:24.36200m - 21.80 - (21.8)
600m - 54.64 - (32.8)
1000m - 1:28.18 - (33.5)
1400m - 2:02.38 - (34.1)
1800m - 2:36.43 - (34.0)
2200m - 3:10.84 - (34.4)
2600m - 3:46.02 - (35.1)
3000m - 4:21.61 - (35.5)
3400m - 4:57.49 - (35.8)
3800m - 5:33.70 - (36.2)
4200m - 6:10.21 - (36.5)
4600m - 6:47.06 - (36.8)
5000m - 7:24.36 - (37.3)
39.32 0
22 234 Francesca  Bettrone ITA ITA 7:29.92200m - 21.86 - (21.8)
600m - 55.54 - (33.6)
1000m - 1:29.90 - (34.3)
1400m - 2:04.20 - (34.2)
1800m - 2:38.91 - (34.7)
2200m - 3:14.11 - (35.2)
2600m - 3:49.59 - (35.4)
3000m - 4:25.32 - (35.7)
3400m - 5:01.93 - (36.6)
3800m - 5:39.26 - (37.3)
4200m - 6:16.44 - (37.1)
4600m - 6:53.17 - (36.7)
5000m - 7:29.92 - (36.7)
44.88 0
23 227 Saskia  Alusalu EST EST 7:30.81200m - 21.21 - (21.2)
600m - 54.60 - (33.3)
1000m - 1:28.69 - (34.0)
1400m - 2:03.33 - (34.6)
1800m - 2:38.27 - (34.9)
2200m - 3:13.35 - (35.0)
2600m - 3:48.78 - (35.4)
3000m - 4:24.44 - (35.6)
3400m - 5:00.52 - (36.0)
3800m - 5:36.81 - (36.2)
4200m - 6:14.08 - (37.2)
4600m - 6:52.01 - (37.9)
5000m - 7:30.81 - (38.8)
45.77 0